Location: Tamazert
(32.6352°N, 5.2072°W)
Time: 22:09:42
(UTC+00:00)

Courier 1B Rocket - Pass Details

Date: 11 October 2022
Orbit: 920 x 1201 km, 28.2° (Epoch: 08 December)

Event Time Altitude Azimuth Distance (km) Brightness Sun altitude
Rises 18:39:10 0° 269° (W) 3,952 10.5 -10.5°
Reaches altitude 10° 18:42:05 10° 265° (W) 2,951 9.1 -11.2°
Maximum altitude 18:49:06 56° 189° (S) 1,222 5.6 -12.6°
Enters shadow 18:54:35 15° 116° (ESE) 2,401 6.5 -13.8°
